Kankakee, IL

6:07 AM CST on November 25, 2017 (GMT -0600)
Greater Kankakee

Weather History for KIKK - October, 2010

Change the Weather History Date:

Sunday, October 3, 2010

  Actual Average Record
Temperature  
Mean Temperature 50 °F -  
Max Temperature 57 °F 70 °F 89 °F (2006)
Min Temperature 42 °F 43 °F 28 °F (2004)
Degree Days  
Heating Degree Days 16    
Moisture  
Dew Point 38 °F    
Average Humidity 67    
Maximum Humidity 93    
Minimum Humidity 38    
Precipitation  
Precipitation 0.00 in - - ()
Sea Level Pressure  
Sea Level Pressure 30.34 in    
Wind  
Wind Speed 6 mph (NNE)    
Max Wind Speed 15 mph    
Max Gust Speed 22 mph    
Visibility 10 miles    
Events Rain    
Averages and records for this station are not official NWS values.
T = Trace of Precipitation, MM = Missing Value Source: NWS Daily Summary

Daily Weather History Graph

Daily Weather History Graph

Search for Another Location

Airport or City:

Trip Planner

Search our weather history database for the weather conditions in past years. The results will help you decide how hot, cold, wet, or windy it might be!

Date:

Astronomy

Oct. 03, 2010 Rise Set
Actual Time 6:50 AM CDT 6:30 PM CDT
Civil Twilight 6:22 AM CDT 6:57 PM CDT
Nautical Twilight 5:50 AM CDT 7:29 PM CDT
Astronomical Twilight 5:18 AM CDT 8:01 PM CDT
Moon 1:42 AM CDT (10/3) 3:56 PM CDT (10/3)
Length of Visible Light 12h 34m
Length of Day
11h 39m
Waning Crescent, 23% of the Moon is Illuminated
Oct 3
Waning Crescent
Oct 7
New
Oct 14
First Quarter
Oct 22
Full
Oct 30
Last Quarter

Hourly Weather History & Observations

Time (CDT) Temp. Windchill Dew Point Humidity Pressure Visibility Wind Dir Wind Speed Gust Speed Precip Events Conditions
12:02 AM 46.4 °F 41.9 °F 41.0 °F 81% 30.27 in 7.0 mi North 9.2 mph - N/A Rain Rain
12:22 AM 46.4 °F 42.4 °F 42.8 °F 87% 30.28 in 10.0 mi North 8.1 mph - N/A Rain Light Rain
12:42 AM 46.4 °F 42.9 °F 41.0 °F 81% 30.28 in 10.0 mi North 6.9 mph - N/A Rain Light Rain
1:02 AM 46.4 °F 44.3 °F 41.0 °F 81% 30.28 in 10.0 mi NNW 4.6 mph - N/A   Mostly Cloudy
1:23 AM 44.6 °F 42.2 °F 41.0 °F 87% 30.28 in 10.0 mi North 4.6 mph - N/A   Scattered Clouds
1:42 AM 46.4 °F 44.3 °F 42.8 °F 87% 30.29 in 10.0 mi NNW 4.6 mph - N/A   Mostly Cloudy
2:02 AM 44.6 °F 42.2 °F 41.0 °F 87% 30.29 in 10.0 mi North 4.6 mph - N/A   Mostly Cloudy
2:22 AM 44.6 °F 41.4 °F 41.0 °F 87% 30.29 in 10.0 mi North 5.8 mph - N/A   Mostly Cloudy
2:42 AM 46.4 °F 43.5 °F 42.8 °F 87% 30.29 in 10.0 mi North 5.8 mph - N/A   Mostly Cloudy
3:02 AM 46.4 °F 45.2 °F 42.8 °F 87% 30.30 in 10.0 mi North 3.5 mph - N/A Rain Light Rain
3:22 AM 46.4 °F 45.2 °F 42.8 °F 87% 30.30 in 10.0 mi NNE 3.5 mph - N/A   Overcast
3:42 AM 46.4 °F 45.2 °F 42.8 °F 87% 30.31 in 10.0 mi NNE 3.5 mph - N/A   Overcast
4:02 AM 46.4 °F - 42.8 °F 87% 30.31 in 10.0 mi Calm Calm - N/A   Overcast
4:22 AM 44.6 °F - 41.0 °F 87% 30.31 in 10.0 mi Calm Calm - N/A   Overcast
4:42 AM 44.6 °F - 41.0 °F 87% 30.32 in 10.0 mi Calm Calm - N/A   Overcast
5:02 AM 42.8 °F 40.1 °F 37.4 °F 81% 30.32 in 10.0 mi NE 4.6 mph - N/A   Scattered Clouds
5:22 AM 42.8 °F - 37.4 °F 81% 30.33 in 10.0 mi Calm Calm - N/A   Scattered Clouds
5:42 AM 42.8 °F - 39.2 °F 87% 30.33 in 10.0 mi Calm Calm - N/A   Scattered Clouds
6:02 AM 42.8 °F - 39.2 °F 87% 30.34 in 10.0 mi Calm Calm - N/A   Scattered Clouds
6:22 AM 42.8 °F - 39.2 °F 87% 30.35 in 10.0 mi Calm Calm - N/A   Scattered Clouds
6:42 AM 42.8 °F - 39.2 °F 87% 30.35 in 10.0 mi Calm Calm - N/A   Scattered Clouds
7:02 AM 42.8 °F - 41.0 °F 93% 30.35 in 10.0 mi Calm Calm - N/A   Mostly Cloudy
7:22 AM 42.8 °F 41.1 °F 41.0 °F 93% 30.36 in 10.0 mi NW 3.5 mph - N/A   Scattered Clouds
7:42 AM 44.6 °F 43.1 °F 41.0 °F 87% 30.36 in 10.0 mi NW 3.5 mph - N/A   Scattered Clouds
8:02 AM 46.4 °F - 42.8 °F 87% 30.37 in 10.0 mi Calm Calm - N/A   Scattered Clouds
8:22 AM 46.4 °F 43.5 °F 42.8 °F 87% 30.37 in 10.0 mi NNW 5.8 mph - N/A   Clear
8:42 AM 48.2 °F - 42.8 °F 82% 30.38 in 10.0 mi NNW 3.5 mph - N/A   Clear
9:03 AM 48.2 °F - 42.8 °F 82% 30.38 in 10.0 mi NNW 5.8 mph - N/A   Scattered Clouds
9:22 AM 50.0 °F - 42.8 °F 76% 30.38 in 10.0 mi NNE 3.5 mph - N/A   Scattered Clouds
9:42 AM 51.8 °F - 42.8 °F 71% 30.38 in 10.0 mi NNE 3.5 mph - N/A   Clear
10:02 AM 53.6 °F - 42.8 °F 67% 30.38 in 10.0 mi Calm Calm - N/A   Scattered Clouds
10:22 AM 53.6 °F - 41.0 °F 62% 30.38 in 10.0 mi ENE 8.1 mph - N/A   Scattered Clouds
10:42 AM 55.4 °F - 41.0 °F 58% 30.37 in 10.0 mi NE 10.4 mph - N/A   Mostly Cloudy
11:02 AM 53.6 °F - 39.2 °F 58% 30.37 in 10.0 mi NNE 9.2 mph - N/A   Scattered Clouds
11:22 AM 55.4 °F - 37.4 °F 51% 30.37 in 10.0 mi NNE 6.9 mph 16.1 mph N/A   Scattered Clouds
11:42 AM 57.2 °F - 37.4 °F 48% 30.37 in 10.0 mi NE 12.7 mph - N/A   Mostly Cloudy
12:02 PM 57.2 °F - 37.4 °F 48% 30.36 in 10.0 mi North 10.4 mph - N/A   Overcast
12:22 PM 55.4 °F - 37.4 °F 51% 30.37 in 10.0 mi NNE 11.5 mph - N/A   Mostly Cloudy
12:42 PM 57.2 °F - 37.4 °F 48% 30.37 in 10.0 mi NNE 9.2 mph 18.4 mph N/A   Mostly Cloudy
1:02 PM 55.4 °F - 35.6 °F 47% 30.36 in 10.0 mi NNE 9.2 mph 18.4 mph N/A   Mostly Cloudy
1:22 PM 55.4 °F - 33.8 °F 44% 30.36 in 10.0 mi NNE 13.8 mph 18.4 mph N/A   Mostly Cloudy
1:42 PM 55.4 °F - 35.6 °F 47% 30.36 in 10.0 mi NNE 15.0 mph 18.4 mph N/A   Mostly Cloudy
2:02 PM 57.2 °F - 33.8 °F 41% 30.36 in 10.0 mi NNE 13.8 mph 19.6 mph N/A   Mostly Cloudy
2:22 PM 55.4 °F - 33.8 °F 44% 30.35 in 10.0 mi NNE 11.5 mph 20.7 mph N/A   Mostly Cloudy
2:42 PM 57.2 °F - 32.0 °F 38% 30.35 in 10.0 mi North 11.5 mph 20.7 mph N/A   Scattered Clouds
3:02 PM 57.2 °F - 32.0 °F 38% 30.35 in 10.0 mi NNE 12.7 mph 21.9 mph N/A   Scattered Clouds
3:22 PM 57.2 °F - 33.8 °F 41% 30.34 in 10.0 mi North 10.4 mph 17.3 mph N/A   Scattered Clouds
3:42 PM 57.2 °F - 35.6 °F 44% 30.35 in 10.0 mi NNE 10.4 mph 17.3 mph N/A   Scattered Clouds
4:02 PM 57.2 °F - 32.0 °F 38% 30.35 in 10.0 mi North 13.8 mph 19.6 mph N/A   Scattered Clouds
4:22 PM 57.2 °F - 33.8 °F 41% 30.35 in 10.0 mi NNE 12.7 mph 19.6 mph N/A   Scattered Clouds
4:42 PM 55.4 °F - 33.8 °F 44% 30.35 in 10.0 mi NNE 12.7 mph 21.9 mph N/A   Scattered Clouds
5:02 PM 55.4 °F - 32.0 °F 41% 30.35 in 10.0 mi NNE 11.5 mph 18.4 mph N/A   Clear
5:22 PM 53.6 °F - 32.0 °F 44% 30.35 in 10.0 mi NNE 15.0 mph 20.7 mph N/A   Clear
5:42 PM 53.6 °F - 32.0 °F 44% 30.36 in 10.0 mi North 9.2 mph - N/A   Clear
6:02 PM 53.6 °F - 33.8 °F 47% 30.36 in 10.0 mi NNE 10.4 mph 17.3 mph N/A   Clear
6:22 PM 51.8 °F - 35.6 °F 54% 30.36 in 10.0 mi NNE 10.4 mph - N/A   Clear
6:42 PM 50.0 °F - 35.6 °F 58% 30.36 in 10.0 mi NNE 5.8 mph - N/A   Clear
7:02 PM 48.2 °F - 35.6 °F 62% 30.37 in 10.0 mi NNE 5.8 mph - N/A   Clear
7:22 PM 48.2 °F - 35.6 °F 62% 30.37 in 10.0 mi North 6.9 mph - N/A   Clear
7:42 PM 48.2 °F - 37.4 °F 66% 30.37 in 10.0 mi North 3.5 mph - N/A   Scattered Clouds
8:02 PM 46.4 °F - 37.4 °F 71% 30.37 in 10.0 mi Calm Calm - N/A   Clear
8:22 PM 46.4 °F 44.3 °F 37.4 °F 71% 30.37 in 10.0 mi NNW 4.6 mph - N/A   Clear
8:42 PM 46.4 °F 45.2 °F 37.4 °F 71% 30.38 in 10.0 mi NW 3.5 mph - N/A   Clear
9:02 PM 46.4 °F 45.2 °F 37.4 °F 71% 30.38 in 10.0 mi NNW 3.5 mph - N/A   Clear
9:22 PM 44.6 °F 43.1 °F 37.4 °F 76% 30.38 in 10.0 mi NNW 3.5 mph - N/A   Clear
9:42 PM 44.6 °F 41.4 °F 37.4 °F 76% 30.37 in 10.0 mi North 5.8 mph - N/A   Clear
10:02 PM 46.4 °F 43.5 °F 37.4 °F 71% 30.37 in 10.0 mi North 5.8 mph - N/A   Clear
10:22 PM 46.4 °F 43.5 °F 37.4 °F 71% 30.38 in 10.0 mi North 5.8 mph - N/A   Clear
10:42 PM 46.4 °F 44.3 °F 37.4 °F 71% 30.38 in 10.0 mi North 4.6 mph - N/A   Clear
11:02 PM 44.6 °F 42.2 °F 37.4 °F 76% 30.37 in 10.0 mi North 4.6 mph - N/A   Clear
11:22 PM 44.6 °F 42.2 °F 37.4 °F 76% 30.37 in 10.0 mi North 4.6 mph - N/A   Clear
11:42 PM 44.6 °F 42.2 °F 37.4 °F 76% 30.37 in 10.0 mi North 4.6 mph - N/A   Clear